Location: Aulus
(42.7909°N, 1.3399°E)
Time: 05:15:40
(UTC+00:00)

Meteor 2-9 Rocket - Pass Details

Date: 19 May 2025
Orbit: 791 x 893 km, 81.3° (Epoch: 13 June)

Event Time Altitude Azimuth Distance (km) Brightness Sun altitude
Rises 22:14:56 0° 351° (N) 3,409 8.6 -23.4°
Reaches altitude 10° 22:17:20 10° 352° (N) 2,485 7.6 -23.6°
Maximum altitude 22:23:01 79° 80° (E) 888 4.2 -24.0°
Enters shadow 22:24:07 59° 150° (SSE) 1,000 4.2 -24.1°
